Location: East Irvine
(33.6759°N, 117.7598°W)
Time: 21:46:02
(UTC+00:00)

DELTA 2 R/B (1) - Pass Details

Date: 15 November 2025
Orbit: 786 x 800 km, 39.6° (Epoch: 12 December)

Event Time Altitude Azimuth Distance (km) Brightness Sun altitude
Rises 03:14:53 0° 242° (WSW) 3,268 7.7 -30.5°
Reaches altitude 10° 03:17:22 10° 242° (WSW) 2,339 6.7 -31.0°
Enters shadow 03:21:16 47° 236° (SW) 1,025 4.3 -31.8°
